GPS BIIR-8 (PRN 16)

Last updated on July 6, 2021, 3:39 p.m. UTC

1 27663U 03005A   21185.99112417 -.00000059  00000-0  00000-0 0  9998
2 27663  55.7595 286.8442 0120322  38.1626 130.4745  2.00558396135047
UTC
Height (km)
Latitude
Longitude
Inclination
Orbital Period
UTC large
Height (km)
Speed (km/s)
/
Latitude / Longitude
Inclination (degrees)
Orbital Period (minutes)
Azimuth
Elevation
Range (km)
Doppler Factor
iOS Compass Heading
iOS Angle